Regional Weather Roundup
Issued by NWS

Home | Current Version | Previous Version | Graphics & Text | Print | Product List | Glossary On
Versions: 1 2 3 4 5 6 7 8 9 10 11 12 13 14 15 16 17 18 19 20 21 22 23 24 25 26 27 28 29 30 31 32 33 34 35 36 37 38 39 40 41 42 43 44 45 46 47 48 49 50
000
ASUS45 KBOU 200207
RWRCO

WEATHER ROUNDUP FOR COLORADO
NATIONAL WEATHER SERVICE DENVER/BOULDER CO
700 PM MST FRI DEC 19 2014

NOTE: "FAIR" INDICATES FEW OR NO CLOUDS BELOW 12000 FEET WITH NO
SIGNIFICANT WEATHER AND/OR OBSTRUCTIONS TO VISIBILITY.

COZ001>005-013-030-031-200300-
...NORTHWEST COLORADO...

CITY           SKY/WX    TMP DP  RH WIND       PRES   REMARKS
CRAIG            N/A     17  14  88 MISG      30.18F
HAYDEN         PTCLDY    18  12  79 E9        30.17F WCI   6
MEEKER         MOCLDY    13   9  84 N5        30.18F WCI   5
MOUNT WERNER   NOT AVBL
STEAMBOAT SPGS CLOUDY    18  15  88 CALM      30.18S
WALDEN         CLOUDY    23  14  68 S13       30.11F WCI  11
$$

COZ006>008-011-200300-
...WEST CENTRAL VALLEYS...

CITY           SKY/WX    TMP DP  RH WIND       PRES   REMARKS
GRAND JUNCTION CLOUDY    31  28  89 CALM      30.21F
MONTROSE       CLOUDY    33  24  69 CALM      30.22R
EAGLE          CLEAR     25  19  80 E7        30.22R WCI  17
RIFLE          MOCLDY    29  25  85 SE6       30.22S WCI  23
DELTA          CLOUDY    34  27  74 CALM      30.22S
NUCLA          CLOUDY    34  27  75 CALM      30.24R
$$

COZ017>023-064>068-200300-
...SOUTHWEST COLORADO...

CITY           SKY/WX    TMP DP  RH WIND       PRES   REMARKS
DURANGO        CLOUDY    30  24  78 W6        30.18R WCI  24
CORTEZ         CLEAR     32  28  85 NW3       30.20R
PAGOSA SPRINGS CLOUDY    24  20  85 CALM      30.18R
TELLURIDE      MOCLDY    22  17  81 CALM      30.19R
WOLF CREEK PAS PTCLDY    18   1  49 MISG      30.15R
$$

COZ009-010-012-014-032>034-037-058>063-200300-
...CENTRAL COLORADO...

CITY           SKY/WX    TMP DP  RH WIND       PRES   REMARKS
ASPEN          MOCLDY    20  14  77 SW7       30.18R WCI  11
BUENA VISTA    PTCLDY    27   9  46 W8        30.12R WCI  19
COPPER MTN     PTCLDY    14   9  79 W12       30.12S WCI   0
BERTHOUD PASS  CLOUDY     5   0  78 MISG      30.08R
COTTONWOOD PAS PTCLDY    28   9  43 NW5       30.11R WCI  23
GUNNISON       PTCLDY    19  10  68 N3        30.20S
KREMMLING      PTCLDY    18  12  79 CALM      30.19R
LEADVILLE      PTCLDY    11   5  77 N6        30.13R WCI   1
MONARCH PASS   CLOUDY    10   9  92 MISG      30.20S
SALIDA         PTCLDY    32  14  47 W10G20    30.19R WCI  24
SUNLIGHT       CLOUDY   N/A N/A N/A SW3       30.17S
WILKERSON PASS PTCLDY    21   7  53 NW14G30   30.09R WCI   8
$$

COZ069>075-200300-
...SAN LUIS VALLEY/SANGRE DE CRISTO MOUNTAINS...

CITY           SKY/WX    TMP DP  RH WIND       PRES   REMARKS
ALAMOSA        MOCLDY    17  12  80 SE5       30.15R WCI  10
LA VETA PASS   PTCLDY    18  10  73 MISG      30.08R
SAGUACHE       PTCLDY    23  12  63 CALM      30.16S
$$

COZ035-036-038>040-200300-
...NORTHERN COLORADO FRONT RANGE...

CITY           SKY/WX    TMP DP  RH WIND       PRES   REMARKS
DENVER INTL AP PTCLDY    28  16  60 S8        30.01R WCI  20
DMNS CITY PARK   N/A     38  13  35 SW3       30.01S
AURORA         MOCLDY    31  15  50 S10       30.02S WCI  22
FRONT RANGE AP NOT AVBL
ERIE MUNI ARPT   N/A     33  13  43 CALM      30.01R
BOULDER MUN AP PTCLDY    41  12  30 W5        30.01R
CENTENNIAL     MOCLDY    32  16  51 S8        30.01S WCI  25
BROOMFIELD     PTCLDY    36  12  38 W6        30.02R
FORT COLLINS   PTCLDY    30  12  47 N6        30.03R WCI  24
LONGMONT       PTCLDY    31  17  57 W7        30.03R WCI  24
$$

COZ041-046-047-076>085-087-088-200300-
...PIKES PEAK/PALMER DIVIDE AND SOUTHERN FOOTHILLS...

CITY           SKY/WX    TMP DP  RH WIND       PRES   REMARKS
COLO. SPRINGS  MOCLDY    35  14  42 SW6       30.05R WCI  30
A. F. ACADEMY  PTCLDY    24  13  61 N2        30.04R
ELLICOTT       NOT AVBL
FALCON         PTCLDY    26  12  55 W3        30.05S
FORT CARSON    PTCLDY    33  16  48 W8        30.03S WCI  26
LIMON          PTCLDY    20  17  88 CALM      30.04R
MONUMENT HILL  PTCLDY    27  14  59 S12       30.02S WCI  16
TRINIDAD       CLEAR     27  19  72 NW5       30.05S WCI  22
$$

COZ042>045-048>051-090-091-200300-
...NORTHEAST COLORADO...

CITY           SKY/WX    TMP DP  RH WIND       PRES   REMARKS
GREELEY ARPT   PTCLDY    27  16  63 NE5       30.00S WCI  21
AKRON          PTCLDY    29  19  66 S9        30.02S WCI  20
BURLINGTON     CLEAR     27  22  81 SW7       30.05R WCI  19
WRAY           CLEAR     30  25  82 W8        30.04R WCI  22
STERLING       FOG       23  23 100 CALM      30.03R VSB 3/4
HOLYOKE        CLEAR     30  25  80 W5        30.03S WCI  25
FORT MORGAN    PTCLDY    31  23  72 CALM      30.02S
$$

COZ086-089-092>099-200300-
...SOUTHEAST COLORADO...

CITY           SKY/WX    TMP DP  RH WIND       PRES   REMARKS
PUEBLO         PTCLDY    29  20  69 E6        30.05R WCI  23
LA JUNTA       CLEAR     34  25  69 S7        30.05S WCI  28
LAMAR          CLEAR     26  23  88 S6        30.06R WCI  19
SPRINGFIELD      N/A     29  24  82 SW5       30.06F WCI  24
$$



USA.gov is the U.S. government's official web portal to all federal, state and local government web resources and services.